User: anonymous   Login
Location: Unspecified
(0.0000°N, 0.0000°E)
Time: 10:50:21
(UTC+00:00)
Language:

ATS 3 - Orbit

View from above orbital plane
View from above orbital plane
View from above satellite
View from above satellite

Ground track
Ground track

The orbit data is extracted from the following two-line orbital elements,

1  3029U 67111A   19081.63849003 -.00000117 +00000-0 +00000-0 0  9992
2  3029 003.3991 292.2319 0015593 129.1409 243.1706 01.00272187188130
Epoch (UTC): 22 March 2019 15:19:25
Eccentricity: 0.0015593
inclination: 3.3991°
perigee height: 35720 km
apogee height: 35852 km
right ascension of ascending node: 292.2319°
argument of perigee: 129.1409°
revolutions per day: 1.00272187
mean anomaly at epoch: 243.1706°
orbit number at epoch: 18813

The dashed part of the orbit path shows where the satellite is in the earth's shadow,  

DLR